DW9996 Weather Reports


time (UTC)temp
C
wind
direction
speed
KPH
gust
KPH
rain 1hr
cm
rain 24hr
cm
rain mn
cm
humidity
%
barometer
mb
20260505041528 4 340 3.2 8.0 0.00 0.00 0.00 50 1016.0
20260505040025 5 28 4.8 12.9 0.00 0.00 0.00 49 1015.6
20260505034518 5 28 4.8 12.9 0.00 0.00 0.00 47 1015.4
20260505033015 6 43 4.8 19.3 0.00 0.00 0.00 46 1015.4
20260505031515 6 360 11.3 19.3 0.00 0.00 0.00 45 1015.3
20260505030008 6 32 4.8 17.7 0.00 0.00 0.00 44 1015.0
20260505024509 7 5 11.3 22.5 0.00 0.00 0.00 43 1014.8
20260505023003 7 55 12.9 24.1 0.00 0.00 0.00 41 1014.6
20260505021501 8 15 14.5 29.0 0.00 0.00 0.00 38 1014.3
20260505020106 9 53 17.7 32.2 0.00 0.00 0.00 36 1014.0
20260505014557 10 343 16.1 29.0 0.00 0.00 0.00 34 1013.7
20260505013103 10 51 12.9 32.2 0.00 0.00 0.00 33 1013.5
20260505011554 10 347 17.7 38.6 0.00 0.00 0.00 30 1013.2
20260505010109 11 341 17.7 32.2 0.00 0.00 0.00 29 1013.1
20260505004551 11 351 20.9 33.8 0.00 0.00 0.00 28 1013.1
20260505003055 11 42 24.1 40.2 0.00 0.00 0.00 28 1012.9
20260505001549 11 331 19.3 38.6 0.00 0.00 0.00 26 1012.8
20260505000049 12 360 24.1 41.8 0.00 0.00 0.00 25 1012.7
20260504234547 12 306 20.9 48.3 0.00 0.00 0.00 24 1012.6
20260504233102 12 342 20.9 40.2 0.00 0.00 0.00 24 1012.5
20260504231548 12 21 29.0 43.5 0.00 0.00 0.00 25 1012.4
20260504230053 12 343 25.7 43.5 0.00 0.00 0.00 25 1012.2
20260504224542 12 300 24.1 41.8 0.00 0.00 0.00 26 1012.2
20260504223041 12 355 19.3 37.0 0.00 0.00 0.00 25 1012.1
20260504221540 12 336 17.7 33.8 0.00 0.00 0.00 30 1012.1
20260504220039 12 297 14.5 30.6 0.00 0.00 0.00 29 1012.3
20260504214539 11 326 16.1 33.8 0.00 0.00 0.00 31 1012.4
20260504213038 11 312 20.9 40.2 0.00 0.00 0.00 32 1012.5
20260504211539 12 340 20.9 33.8 0.00 0.00 0.00 30 1012.5
20260504210042 12 335 20.9 32.2 0.00 0.00 0.00 31 1012.5
20260504204541 11 307 22.5 35.4 0.00 0.00 0.00 33 1012.5
20260504203051 12 42 17.7 35.4 0.00 0.00 0.00 32 1012.4
20260504201536 11 281 19.3 40.2 0.00 0.00 0.00 34 1012.5
20260504200032 11 19 25.7 40.2 0.00 0.00 0.00 34 1012.4
20260504194534 11 333 17.7 38.6 0.00 0.00 0.00 35 1012.3
20260504193030 12 315 16.1 32.2 0.00 0.00 0.00 35 1012.2
20260504191529 11 303 16.1 37.0 0.00 0.00 0.00 35 1012.2
20260504190029 11 9 22.5 40.2 0.00 0.00 0.00 35 1012.2
20260504184533 11 325 24.1 35.4 0.00 0.00 0.00 35 1012.1
20260504183032 11 347 27.4 40.2 0.00 0.00 0.00 36 1012.0
20260504181526 11 343 20.9 35.4 0.00 0.00 0.00 36 1012.0
20260504180025 11 307 16.1 46.7 0.00 0.00 0.00 37 1012.0
20260504174525 11 315 19.3 33.8 0.00 0.00 0.00 38 1012.0
20260504173024 11 349 16.1 33.8 0.00 0.00 0.00 38 1011.8
20260504171523 11 342 14.5 30.6 0.00 0.00 0.00 41 1011.9
20260504081552 8 78 16.1 29.0 0.00 0.00 0.00 59 1011.4
20260504050014 12 36 16.1 27.4 0.00 0.00 0.00 38 1007.6
20260504044516 12 29 17.7 32.2 0.00 0.00 0.00 37 1007.1
20260504043014 13 46 20.9 43.5 0.00 0.00 0.00 36 1006.7